Wind_Speed
17 20 21 21 22 22 22 22 23 23 23 23 24 25 26 26 27 27 27 27 27 27 27 28 28 28 28 29 29 29 30 31 32 33 34 35 36 35 35 35 35 35 35 34 34 32 32 31 31 31 30 30 30 29 27 26 24 23 24 27 28 27 24 21 19 19 19 18 17
12 16 19 21 22 22 23 22 23 23 23 24 25 26 26 26 27 27 27 28 28 28 27 27 26 26 26 27 28 29 29 30 31 32 33 34 35 35 35 35 35 35 35 35 35 34 33 33 33 32 32 32 31 30 28 27 24 24 25 28 29 27 23 20 19 19 18 17 16
9 11 14 18 21 22 23 23 23 24 25 25 25 25 26 26 27 27 27 28 28 27 27 27 26 26 25 27 27 28 28 29 30 31 32 33 34 34 34 34 34 34 34 34 34 33 32 32 32 33 33 33 33 31 30 28 26 26 27 29 29 27 24 23 22 22 21 19 18
11 9 10 14 18 22 23 24 24 25 26 26 26 25 26 26 27 27 27 27 27 27 27 27 26 26 25 26 26 27 28 28 29 30 31 32 33 34 34 34 34 33 32 32 32 31 31 31 31 32 33 33 32 32 31 29 28 28 30 31 30 28 27 27 27 26 25 23 22
14 12 10 11 14 19 23 24 25 26 26 26 25 25 25 26 27 27 27 27 27 28 28 28 26 25 25 25 26 27 27 28 29 30 31 32 33 33 34 34 33 32 31 30 29 29 29 30 31 32 32 32 31 31 31 30 30 30 31 32 31 29 29 29 29 28 27 26 24
17 16 14 12 12 15 20 23 25 26 26 26 25 25 25 26 26 26 26 26 27 28 27 27 25 24 24 24 25 26 27 28 29 30 31 32 33 33 33 33 32 31 30 29 28 28 29 30 31 32 31 30 30 30 30 30 31 32 32 32 30 29 29 29 29 28 27 25 24
18 18 17 15 13 13 16 20 24 25 26 25 25 26 26 26 26 25 25 25 25 25 25 24 23 23 24 24 25 26 27 28 29 30 31 31 32 32 32 31 30 30 29 28 27 28 29 31 31 31 30 29 28 29 29 30 31 32 32 31 30 29 29 29 28 27 25 23 22
18 18 18 17 15 14 14 17 21 23 25 25 25 26 27 27 26 25 24 23 23 24 24 23 23 23 23 24 25 25 27 28 29 29 30 31 31 30 30 29 28 28 28 28 28 28 30 30 31 30 29 28 28 29 29 30 30 31 31 31 30 29 29 28 27 25 23 22 21
18 18 18 18 17 16 15 15 18 21 24 25 26 27 27 26 25 24 23 22 23 23 23 22 22 23 23 23 24 25 26 27 28 28 29 29 29 29 28 28 27 27 27 27 28 29 29 30 29 29 29 28 28 29 30 30 30 29 29 29 29 28 27 26 25 23 23 22 22
17 17 17 17 17 17 16 15 15 19 22 25 26 26 25 24 24 24 23 22 22 22 22 22 22 23 23 23 24 25 26 27 27 28 28 28 28 27 27 27 26 26 27 27 28 28 28 28 28 28 28 29 29 29 30 30 29 28 28 28 27 26 25 24 23 23 23 23 22
17 17 16 16 16 16 16 16 15 16 19 23 24 24 24 23 23 22 22 22 22 21 21 22 22 22 23 23 24 25 26 26 27 27 27 26 26 26 26 26 26 26 27 27 28 27 27 27 27 28 28 28 28 28 28 29 28 28 27 26 26 25 24 24 23 23 23 23 21
16 16 16 15 15 15 16 16 15 15 17 20 22 22 22 21 21 21 21 21 21 21 21 21 21 22 23 23 24 24 25 26 26 26 26 25 25 25 25 25 25 26 26 27 27 27 26 27 27 27 27 26 26 27 27 27 27 26 26 26 25 25 25 25 24 23 22 21 20
15 15 14 14 13 13 14 15 15 15 15 17 18 19 19 19 19 19 20 20 20 20 20 20 20 21 23 24 24 24 25 25 25 25 24 24 24 24 24 24 25 25 26 26 27 27 26 27 27 27 26 25 25 25 26 26 26 26 26 27 27 27 27 26 24 23 21 19 18
14 13 13 12 13 12 11 12 13 13 13 14 15 15 16 16 17 18 19 19 20 19 19 19 19 20 22 23 24 24 24 24 24 23 22 22 23 23 23 24 24 25 25 26 26 26 26 27 26 26 25 25 25 25 25 25 25 26 27 28 28 27 26 25 24 22 20 19 18
15 13 12 11 12 11 9 8 8 9 9 10 11 11 12 13 14 16 17 18 19 19 19 19 20 20 21 21 23 23 22 22 22 22 22 21 22 23 23 23 24 24 25 26 26 26 26 26 25 25 25 25 25 25 25 25 26 27 28 28 27 26 25 23 22 21 19 18 18
14 13 12 10 10 9 8 6 5 5 5 6 8 9 10 11 12 14 16 17 18 19 19 20 20 20 20 20 21 21 21 21 21 22 22 22 22 22 23 23 23 24 25 25 25 25 24 24 23 24 24 25 25 25 25 26 27 27 27 26 25 24 23 21 20 19 18 18 17
13 12 11 9 7 7 6 5 4 4 4 6 7 8 8 9 11 13 15 17 18 19 20 20 21 21 20 20 20 20 20 21 21 21 21 21 22 22 22 23 23 24 24 24 24 23 22 22 22 23 24 25 25 26 26 26 26 26 26 24 23 22 21 20 19 18 17 16 15
12 11 9 6 4 3 3 3 5 6 7 7 7 7 8 8 10 12 14 16 18 19 20 21 20 20 20 20 19 19 19 20 20 20 20 21 21 22 22 22 22 23 23 22 22 21 21 22 22 24 25 25 26 26 26 26 25 25 24 23 22 21 19 18 17 16 15 13 13
10 9 7 5 2 0 1 3 5 7 8 8 7 7 7 8 9 11 13 15 16 18 20 20 20 19 19 19 19 18 18 19 19 19 20 20 21 21 22 22 21 21 21 20 21 21 22 23 24 25 26 26 26 25 25 25 24 24 23 22 20 19 18 16 15 13 12 12 11
8 7 6 4 3 3 3 4 5 6 7 8 7 7 8 9 10 11 12 13 15 17 18 19 18 18 19 19 18 18 18 19 19 20 20 20 20 21 21 21 21 20 20 20 21 22 23 24 25 25 25 26 25 25 24 24 23 22 21 20 19 17 15 14 13 12 11 11 11
7 7 6 5 5 5 5 6 6 6 7 8 8 8 9 10 11 12 12 13 14 15 16 17 17 18 18 18 18 18 19 19 20 20 20 20 20 20 20 20 21 21 21 21 22 23 24 25 25 24 24 25 25 24 24 23 22 21 20 18 16 15 13 12 12 11 11 11 10
7 6 5 5 5 5 6 7 7 7 8 8 9 10 11 12 12 13 14 14 15 15 16 17 17 18 18 18 19 19 19 20 20 20 20 20 20 20 20 21 21 22 22 23 24 25 25 25 24 24 24 24 24 23 23 22 21 19 18 16 15 14 13 12 11 11 11 10 10
6 5 5 5 6 6 7 8 8 9 9 10 10 11 12 13 14 14 15 15 16 16 17 17 17 18 18 19 19 20 20 20 20 20 20 21 21 21 21 22 22 23 23 24 25 25 25 25 24 23 23 23 23 22 21 20 19 18 17 15 14 13 12 12 11 10 10 9 8
6 6 7 7 8 8 9 9 10 11 11 12 12 13 14 14 15 15 16 16 16 17 17 17 18 18 18 19 19 20 20 21 21 21 21 22 22 23 23 23 23 23 24 25 25 25 26 25 25 24 23 22 21 20 19 18 17 16 16 15 14 13 12 11 10 9 8 7 6
8 9 9 10 10 11 11 11 12 13 13 14 14 14 15 15 16 16 16 16 17 17 17 18 18 18 19 19 19 20 21 21 22 22 23 22 23 23 23 23 23 24 24 24 24 24 25 25 25 24 23 21 20 19 18 16 16 15 14 14 13 12 11 10 9 8 7 6 5
9 10 11 11 12 12 13 14 14 15 15 15 16 16 16 17 17 17 17 17 18 18 18 18 18 19 19 20 20 21 21 22 22 23 23 23 23 23 23 23 24 24 23 22 22 23 23 23 23 22 22 20 19 18 17 16 15 14 13 12 11 10 9 8 7 6 5 5 4
10 11 12 12 12 14 15 15 16 16 16 17 17 17 17 17 18 18 18 19 19 19 19 19 20 20 20 21 21 22 22 22 22 22 23 23 24 24 24 24 24 23 22 21 21 21 21 21 20 20 19 19 18 17 17 15 14 12 11 10 9 8 7 6 5 4 4 3 2
12 12 13 13 14 15 16 16 16 17 17 17 18 18 18 18 19 19 20 20 20 20 21 21 21 21 21 21 22 22 22 22 22 23 23 24 24 25 25 24 24 22 21 20 20 19 19 18 18 17 17 16 16 15 15 14 12 11 9 8 7 6 5 5 4 3 3 3 3
13 14 14 15 16 16 16 16 17 17 17 18 18 18 19 19 20 20 20 21 21 21 22 22 21 21 21 22 22 22 22 23 23 24 24 24 25 25 25 24 23 21 20 20 19 19 18 17 16 15 14 14 13 12 12 11 10 9 8 7 6 5 5 5 5 5 5 5 5
14 14 15 16 16 16 16 16 17 17 17 17 18 18 19 19 20 20 20 21 21 22 21 21 20 21 22 23 23 23 23 24 24 25 25 24 24 24 24 23 22 20 19 19 19 18 17 16 15 13 12 11 10 10 9 9 8 8 7 7 7 7 7 7 7 7 7 7 6
14 15 16 16 16 16 16 16 17 17 17 17 18 18 19 19 19 19 20 20 21 20 20 20 22 23 24 24 24 25 25 25 25 25 25 24 23 23 23 22 21 20 19 19 18 18 16 15 13 12 10 9 9 9 8 8 8 8 9 9 9 9 9 9 9 8 8 7 6
15 16 16 17 17 16 16 16 17 17 17 18 18 18 19 19 19 19 20 20 20 21 21 22 24 24 24 25 25 26 26 26 25 25 25 25 24 23 23 21 20 20 19 18 18 17 15 14 12 11 10 9 9 9 9 9 10 11 11 12 11 11 11 10 9 9 8 7 6
16 16 17 17 17 16 16 16 17 17 17 18 18 19 19 19 19 20 19 19 20 22 23 24 24 24 25 25 26 26 26 25 24 24 24 24 24 23 21 20 20 20 19 18 17 16 14 13 12 11 10 10 10 11 11 12 13 13 13 13 12 11 11 10 9 8 6 5 4
16 16 16 17 16 16 16 17 17 17 18 18 18 19 19 19 19 19 19 19 20 21 22 23 24 25 25 26 26 25 24 23 23 23 23 22 22 22 21 20 20 20 19 18 16 14 13 12 12 12 12 12 13 13 14 14 14 14 13 13 12 11 10 8 7 6 4 3 2
15 16 16 16 16 16 17 17 17 18 18 18 18 18 18 18 18 18 18 19 20 21 22 23 24 25 25 25 25 25 24 23 23 23 23 23 22 22 21 21 21 19 18 16 15 13 13 13 13 13 13 14 14 15 15 14 14 13 13 12 11 9 8 7 6 5 4 3 3
15 16 16 16 16 16 17 17 17 18 18 18 17 17 17 17 17 18 19 20 21 22 23 23 24 25 25 25 24 24 24 24 24 24 24 24 23 23 23 22 20 18 16 14 13 13 14 14 14 14 15 15 15 15 14 14 13 13 12 11 10 8 7 6 6 5 5 5 5
14 15 15 16 16 16 17 17 18 18 18 18 17 17 17 17 18 18 19 21 22 23 23 24 24 24 25 25 24 24 24 25 25 24 23 23 23 23 22 21 19 16 14 13 13 14 15 15 15 15 15 16 15 15 14 13 13 12 11 10 9 8 7 7 7 7 6 6 6
14 14 15 15 16 16 17 17 18 18 18 18 18 18 18 18 18 18 19 21 22 23 23 23 24 24 25 25 25 25 24 23 23 22 21 21 20 20 20 19 17 15 13 12 13 14 15 15 15 15 15 15 15 14 14 13 12 11 10 9 8 8 8 7 7 7 7 7 7
14 14 15 16 17 17 17 18 18 18 19 19 19 19 18 18 18 18 19 20 22 23 23 23 23 24 24 24 24 23 22 21 20 19 18 18 17 16 16 16 15 14 12 11 12 13 14 15 15 15 15 14 14 13 12 12 11 10 9 9 8 8 8 7 7 7 7 8 8
14 15 16 17 17 18 18 18 19 19 19 19 19 19 19 18 18 18 19 20 21 22 22 22 22 22 22 22 21 21 19 18 17 17 16 16 15 14 14 15 15 14 12 11 11 12 13 13 14 14 13 13 13 12 11 11 10 10 9 9 8 8 7 7 7 7 7 7 8
15 16 17 18 18 19 19 19 19 19 19 20 20 20 19 19 19 19 19 20 21 21 21 21 21 20 20 19 18 18 17 17 16 16 15 15 14 13 13 13 13 14 13 12 12 12 12 11 11 12 12 12 11 11 10 10 10 10 9 8 7 7 6 6 6 6 6 7 8
Wind_Direction
257 250 246 244 243 241 239 236 236 234 231 229 229 229 229 229 230 231 230 229 229 230 230 231 231 231 230 228 225 221 218 216 214 215 217 219 220 221 221 221 222 224 224 224 223 222 221 220 219 217 215 213 212 211 210 212 214 217 220 220 215 210 206 204 209 211 207 201 198
276 260 251 246 243 242 240 238 238 237 235 233 231 231 230 230 230 231 232 232 232 232 232 233 233 231 230 228 225 221 217 214 214 215 217 220 221 222 222 223 224 226 226 225 223 221 219 218 215 212 210 209 208 208 209 211 214 218 219 216 210 204 199 198 200 199 195 191 190
312 282 262 250 245 242 240 239 239 239 238 237 235 233 232 231 232 233 234 234 233 233 232 232 232 230 229 229 225 220 216 214 214 216 218 220 221 221 221 223 225 225 225 223 220 219 218 216 213 209 206 205 205 206 207 209 213 216 216 212 205 199 194 192 192 191 189 187 187
343 319 284 261 250 244 241 240 240 241 242 241 238 235 234 234 234 235 235 234 234 232 231 230 229 228 227 227 224 220 216 215 216 218 220 220 220 219 220 222 223 223 221 219 217 216 215 213 210 207 205 204 204 205 206 208 211 213 211 207 201 195 191 190 190 189 188 188 188
350 341 319 287 263 251 245 242 242 243 244 243 240 237 236 236 236 236 235 234 232 231 230 229 227 226 225 224 223 220 217 216 217 219 221 221 220 219 219 220 220 219 218 216 214 212 209 207 205 204 203 204 205 206 208 210 210 208 205 201 196 191 188 187 187 187 187 188 189
349 344 335 317 289 265 253 247 245 245 245 244 241 238 238 237 237 236 234 232 231 230 229 227 225 224 224 223 222 220 218 217 218 220 221 221 220 219 218 218 218 217 215 214 213 209 205 202 201 201 202 203 205 207 209 210 208 203 198 193 190 188 186 185 184 185 186 187 186
346 342 338 330 314 288 265 254 249 247 246 245 241 240 240 239 237 236 234 232 231 229 227 224 221 221 221 221 219 218 217 217 217 219 220 220 219 218 217 216 216 215 214 213 210 206 202 201 199 199 201 204 206 208 209 208 203 198 192 188 186 185 184 184 185 185 186 185 181
341 340 338 332 324 309 286 266 255 250 247 246 244 242 241 240 238 236 234 232 231 228 225 222 219 218 219 218 216 215 215 215 215 216 217 218 217 216 215 214 213 212 211 211 208 204 201 200 200 201 203 206 208 209 208 205 199 193 188 185 183 183 184 185 186 185 182 177 170
335 336 336 333 328 320 306 285 265 254 250 247 246 245 243 241 239 237 234 230 229 228 225 220 218 217 217 216 214 212 212 212 211 212 213 213 213 212 210 209 208 207 206 206 205 203 201 200 201 203 206 208 208 208 206 200 194 189 185 182 180 180 183 184 182 178 171 165 158
331 332 333 333 330 325 317 303 280 262 253 249 247 246 244 242 239 236 233 230 229 226 223 219 216 214 212 210 209 209 209 209 208 209 208 208 208 207 206 204 203 202 201 200 199 199 200 200 201 204 207 208 207 204 200 195 190 185 182 180 178 177 176 175 171 166 161 157 153
328 327 327 329 329 328 323 315 298 276 260 253 250 248 247 244 240 237 233 230 227 223 219 216 213 210 207 205 205 205 206 206 206 205 205 204 204 203 203 202 201 199 197 195 195 195 197 199 201 203 204 205 202 197 192 189 186 183 180 177 174 169 165 162 160 158 156 154 153
326 322 319 320 325 327 327 323 312 293 272 259 254 251 249 246 242 237 232 227 223 218 215 213 208 205 202 201 200 201 202 202 202 202 201 200 200 200 200 199 198 196 194 192 192 193 195 198 200 200 199 197 194 189 184 182 181 179 175 170 166 161 157 155 156 155 155 154 153
329 322 316 314 317 322 327 327 321 306 286 269 260 256 253 249 243 236 230 223 218 214 210 206 202 199 197 196 196 196 197 198 198 198 197 196 196 196 195 195 194 193 191 190 191 192 195 197 199 197 193 189 185 181 178 177 175 171 166 161 157 155 154 154 154 154 154 153 152
335 328 320 312 308 310 318 326 324 312 295 278 268 261 255 248 241 233 226 220 213 208 203 198 194 193 193 193 192 193 193 194 194 194 193 193 193 193 192 191 191 189 189 189 191 193 195 196 196 194 189 182 177 174 172 170 167 162 158 154 153 152 152 152 152 152 151 151 150
340 335 326 313 302 297 300 311 316 309 296 282 272 263 254 243 234 227 220 214 207 202 196 190 186 186 187 189 190 191 191 191 191 191 190 189 189 189 188 187 187 187 188 190 192 194 194 193 191 188 183 176 171 167 165 162 159 156 153 152 152 151 150 150 150 150 151 152 152
345 341 334 320 302 288 278 275 278 279 275 267 263 257 247 236 227 220 213 205 199 194 189 184 181 181 182 184 187 188 188 188 189 188 187 185 184 184 183 183 183 185 187 189 191 191 190 189 185 180 175 169 164 160 158 156 154 153 152 152 152 151 150 150 151 152 154 156 156
348 346 341 329 307 285 265 242 219 205 209 225 237 241 237 227 218 210 204 198 193 188 184 181 180 179 178 180 183 184 185 185 184 184 182 181 180 179 179 180 182 184 186 187 186 183 181 177 173 169 165 161 157 155 154 153 153 153 153 154 153 153 153 154 155 156 156 158 159
351 351 348 340 319 288 250 204 177 169 174 189 206 219 223 217 206 197 193 191 188 183 180 178 178 177 176 176 177 179 179 179 179 178 178 177 176 176 177 179 180 182 182 180 177 173 168 164 160 158 156 154 152 152 153 153 154 154 155 155 155 155 155 156 157 157 157 158 160
359 0 1 1 360 8 160 155 152 153 158 166 180 195 204 202 193 186 182 181 180 178 176 173 172 173 173 172 171 171 173 173 173 173 173 173 174 175 176 176 176 175 173 169 166 162 158 155 153 152 151 150 151 152 153 153 153 153 153 153 152 153 154 155 155 156 156 158 161
13 19 25 35 57 90 108 117 122 128 136 146 159 176 188 190 185 176 170 168 169 170 169 167 164 164 164 165 164 163 164 167 168 167 168 169 170 170 171 170 168 165 161 158 155 153 151 150 149 149 149 149 150 150 150 150 149 149 149 149 150 151 153 153 153 154 155 157 160
29 34 41 53 70 84 95 101 105 107 113 125 142 164 178 177 172 165 160 158 159 159 158 157 155 154 155 156 156 155 156 159 161 161 161 162 162 162 162 161 157 154 152 150 148 147 147 147 147 147 147 148 147 147 146 145 145 146 147 148 149 150 151 151 152 152 154 156 159
39 45 56 66 81 91 97 101 104 105 108 115 128 145 156 156 154 151 150 150 149 147 146 146 146 147 148 149 149 149 149 150 151 152 153 153 152 152 152 152 149 147 145 144 144 145 145 145 144 144 144 144 143 143 143 144 144 145 146 147 148 148 149 149 150 151 153 156 160
51 66 84 95 106 111 110 109 110 111 113 115 123 131 136 137 139 140 141 140 140 139 138 138 139 141 143 144 144 144 143 142 142 143 144 144 143 143 144 144 143 142 141 142 143 143 143 141 141 141 141 140 140 141 143 144 145 146 147 147 147 146 146 147 149 151 155 159 164
75 88 98 105 114 119 121 120 119 118 117 119 122 125 126 127 130 132 133 133 133 133 134 134 135 136 138 139 140 140 139 138 136 136 136 137 138 138 139 140 140 140 141 142 144 144 143 142 140 140 141 141 142 143 145 146 147 147 147 146 145 145 145 147 150 155 160 166 175
90 96 100 104 108 113 118 121 122 121 121 121 123 123 124 125 127 129 130 129 129 130 130 130 131 132 133 134 135 135 135 134 133 131 131 132 134 136 137 138 139 139 140 141 143 145 146 145 144 144 143 144 144 145 146 147 147 147 146 145 145 146 148 151 155 162 171 183 195
95 97 99 102 105 107 108 110 113 116 118 121 122 123 122 123 125 127 126 125 124 125 126 126 126 127 128 128 128 129 129 129 129 130 130 131 133 134 136 136 136 136 137 138 141 143 145 147 147 147 147 146 145 145 144 143 143 143 144 144 146 149 153 158 164 173 187 202 211
94 96 99 103 104 102 102 104 107 110 113 116 117 118 120 121 122 122 121 119 119 120 120 120 120 121 122 123 123 123 124 126 128 130 132 133 134 134 134 134 133 132 132 134 136 138 141 144 146 147 147 146 144 143 141 140 141 142 144 146 149 155 161 168 175 182 187 193 194
91 94 98 101 100 99 101 103 104 105 107 110 112 114 116 117 118 117 116 116 116 116 115 115 117 119 119 120 121 123 126 128 131 133 134 135 134 133 131 130 128 127 128 130 132 133 136 139 143 145 145 143 141 140 139 140 142 144 147 149 153 156 161 164 163 155 138 118 96
89 93 96 97 97 98 100 102 102 104 106 107 109 111 113 113 114 114 115 115 115 115 115 116 119 120 122 124 126 129 130 132 133 133 133 131 130 128 127 126 125 126 128 129 129 129 130 133 138 141 141 141 139 139 140 142 145 147 148 147 145 141 136 129 119 107 95 85 77
88 91 93 94 95 97 98 100 103 105 107 108 110 110 111 112 112 114 115 117 118 119 120 123 125 127 128 130 131 131 131 131 132 131 129 127 124 123 123 123 124 126 127 127 126 126 127 130 135 138 139 139 140 141 143 144 144 141 136 127 119 111 105 99 93 88 85 82 82
87 90 92 93 94 95 97 100 104 106 108 109 110 111 111 111 112 115 118 120 122 123 126 128 129 130 131 131 130 129 129 129 129 128 126 123 121 121 122 123 124 125 127 126 125 125 127 130 133 136 138 139 140 141 140 137 130 121 112 105 100 96 93 91 90 89 90 93 98
88 91 92 92 93 94 96 99 103 106 108 109 110 111 111 112 114 118 121 123 124 126 127 128 129 128 128 128 127 126 126 125 125 124 124 122 121 120 121 121 122 123 124 123 122 123 124 127 129 131 132 132 130 126 121 113 106 101 97 95 94 93 94 95 97 100 103 108 113
91 92 93 93 94 95 97 99 102 104 106 108 109 110 112 114 117 119 120 121 123 125 125 126 125 125 124 124 123 122 121 121 121 121 121 121 120 120 119 118 119 119 119 118 117 117 118 119 119 119 117 113 108 102 97 94 93 93 94 95 96 98 100 103 106 109 111 113 114
94 95 95 95 96 97 99 101 103 105 106 106 108 110 112 114 115 115 116 118 121 123 123 124 123 123 123 123 121 120 119 118 119 120 120 120 120 118 117 116 117 117 115 113 112 110 108 107 105 102 99 95 91 87 86 87 90 93 97 101 103 105 107 107 106 105 101 92 75
97 98 98 98 99 101 102 104 105 106 106 105 106 108 110 111 111 112 114 118 120 122 122 122 123 123 122 122 121 120 119 118 119 120 121 120 119 117 115 114 115 115 113 110 106 101 96 93 91 88 86 84 83 83 85 89 93 98 102 105 107 107 106 101 96 88 77 65 51
99 100 100 101 102 103 105 106 107 107 106 105 105 106 107 109 110 114 117 121 121 120 120 120 121 121 120 119 118 118 118 119 119 120 120 119 118 116 114 114 114 114 111 107 99 91 87 84 82 80 79 80 82 85 90 95 100 105 108 109 108 105 99 91 84 77 70 62 53
98 101 102 102 103 104 106 107 108 107 105 105 105 106 107 109 111 115 120 122 121 119 118 119 119 118 117 117 116 116 118 120 120 119 118 118 118 117 117 116 115 113 110 102 93 86 83 80 78 77 77 81 86 93 99 105 109 112 112 109 105 100 93 86 80 75 69 61 51
98 101 103 104 104 105 107 108 107 106 106 106 107 109 110 112 113 115 119 121 119 118 117 117 116 116 117 118 117 117 118 119 119 118 117 117 118 119 119 119 118 116 111 102 92 87 83 80 79 78 80 86 93 101 109 114 117 116 113 108 103 97 91 83 78 72 64 56 44
101 104 106 106 107 107 107 107 106 106 107 109 110 111 112 112 112 115 118 120 120 118 116 115 115 116 119 120 120 119 118 118 117 116 116 116 117 119 121 123 123 122 116 105 95 91 89 87 85 85 86 91 96 103 110 116 118 117 113 108 102 96 87 76 68 60 53 45 37
107 108 109 108 108 107 106 105 106 107 109 110 111 111 111 111 113 115 118 119 119 118 117 116 116 118 121 123 123 122 120 119 118 116 116 116 118 121 124 127 129 128 123 113 104 101 100 98 93 90 89 91 95 99 104 113 116 116 111 105 98 90 81 69 58 49 40 31 25
110 110 109 108 107 107 106 106 106 108 109 110 110 111 112 114 116 117 118 118 118 118 118 118 119 120 122 123 123 123 122 120 119 118 117 119 121 124 128 131 133 132 129 123 117 114 112 106 97 91 88 89 92 94 96 105 110 111 108 102 94 86 79 68 55 42 29 19 12
Height
756 757 757 758 759 759 760 760 760 760 760 760 760 760 760 761 761 762 762 762 763 763 763 763 764 764 765 765 766 767 767 768 769 770 771 772 773 774 775 775 776 777 777 778 780 781 782 784 786 788 791 793 795 796 798 799 800 801 802 802 803 803 803 805 807 809 811 812 812
755 755 756 757 757 758 758 758 758 758 758 758 758 758 758 758 759 759 760 760 761 761 762 762 763 764 764 764 765 766 767 767 768 769 770 771 772 772 773 774 775 775 776 776 777 778 780 781 783 785 787 789 791 793 795 796 798 799 800 800 801 801 802 803 806 808 809 810 811
753 754 754 755 755 756 756 757 757 757 757 757 757 757 757 757 757 758 758 759 759 760 761 761 762 762 763 763 764 765 766 767 767 768 769 770 771 772 772 773 774 774 775 775 775 776 777 779 781 783 785 786 788 790 791 793 795 797 797 798 798 799 800 801 803 805 806 807 808
753 753 753 753 754 754 754 755 755 755 755 756 756 756 756 756 756 756 757 757 758 758 759 760 760 761 761 762 763 764 765 766 767 767 768 769 770 770 771 771 772 774 775 775 774 775 776 778 780 782 783 785 787 788 789 790 792 793 794 795 796 797 797 798 800 801 802 803 804
752 752 752 752 752 752 753 753 753 753 754 754 755 755 755 755 755 755 756 756 756 757 757 758 759 759 760 761 762 762 763 765 766 766 767 767 768 769 770 770 771 772 774 775 775 775 776 778 780 782 783 784 786 787 788 789 790 791 792 792 794 794 795 796 797 798 799 800 802
751 751 751 751 751 751 752 752 752 752 752 753 753 754 754 754 754 754 754 754 754 755 756 757 758 758 759 760 760 761 762 763 764 765 766 766 767 768 768 769 770 771 772 773 774 775 776 777 779 781 782 784 785 787 787 788 789 789 790 791 792 793 793 794 796 797 798 799 801
751 751 750 750 750 750 750 750 751 751 752 752 752 752 752 752 753 753 753 753 754 754 755 756 757 757 758 758 759 760 761 762 762 763 764 765 766 767 767 768 769 770 771 772 773 775 776 777 779 780 782 783 785 786 787 787 788 788 788 789 790 792 793 794 795 796 797 799 800
751 751 750 749 749 749 748 749 749 750 751 751 751 751 751 751 752 752 753 753 753 753 754 755 756 756 757 757 758 759 760 760 761 762 763 764 765 766 767 768 769 770 771 772 773 774 775 777 778 779 781 782 783 784 785 787 787 787 787 788 789 790 792 793 794 796 797 798 800
750 750 750 749 748 748 747 747 748 749 749 749 749 749 750 750 751 752 752 753 752 753 753 754 755 755 756 757 757 758 759 759 760 761 762 763 764 765 766 767 768 769 770 771 772 773 775 776 777 779 780 781 782 783 784 785 786 787 787 787 788 790 791 792 794 795 796 798 799
749 749 749 749 748 747 747 747 747 747 748 748 748 749 749 750 750 751 751 752 752 752 753 753 754 754 755 756 757 757 758 759 759 760 761 762 763 764 765 767 768 769 770 771 772 773 774 776 777 778 779 780 781 782 783 784 785 786 787 787 788 790 791 792 794 795 796 797 798
748 748 748 748 747 747 746 746 746 746 747 747 747 748 749 749 750 750 751 751 751 751 752 752 753 753 754 755 756 756 757 758 759 760 761 762 763 764 765 766 767 768 769 770 772 773 774 775 776 777 778 779 780 781 782 783 784 785 786 787 789 790 792 793 794 795 796 797 798
747 747 747 747 747 747 746 745 745 745 746 747 747 748 748 749 749 750 750 750 750 750 751 751 752 752 753 754 755 756 757 758 759 760 761 762 763 765 766 766 767 768 769 770 772 773 774 775 775 776 777 778 779 780 782 782 784 785 786 787 789 790 792 793 795 796 796 797 797
746 746 746 746 746 746 745 745 745 745 745 746 747 747 748 748 749 749 749 749 749 750 750 751 752 752 752 753 754 755 756 757 758 760 761 762 763 764 765 766 767 768 769 770 772 772 773 774 775 776 777 777 779 780 781 782 783 785 786 788 789 791 792 793 794 795 796 797 797
745 745 745 745 745 745 744 744 744 745 745 746 747 748 748 748 748 748 748 749 749 749 750 750 751 752 752 753 753 754 756 757 758 760 761 762 763 764 765 766 766 767 769 770 771 772 773 774 774 775 776 777 779 780 781 782 783 785 786 788 790 791 792 793 794 795 796 797 798
745 744 744 744 744 743 743 743 743 744 745 746 747 748 748 748 748 748 748 748 748 749 749 750 751 752 752 753 753 754 756 757 758 760 761 762 762 763 764 765 766 767 769 770 771 772 773 773 774 775 776 777 779 780 782 783 784 785 787 789 790 792 792 793 794 794 796 797 798
744 744 744 743 743 743 742 742 741 742 743 745 747 748 748 748 748 748 748 748 748 749 749 750 750 751 752 753 754 755 756 757 758 759 760 761 762 763 764 765 767 768 769 770 771 772 773 773 774 775 776 777 779 781 782 783 784 786 787 789 791 792 793 793 794 795 796 797 798
744 744 744 744 744 743 742 741 740 740 741 744 746 747 748 748 748 748 748 748 748 748 749 749 750 751 752 753 754 755 756 757 758 759 760 761 762 763 765 766 767 768 769 770 771 772 773 774 775 776 777 778 780 781 783 784 785 787 788 790 791 792 793 794 794 795 796 797 799
745 744 744 744 744 744 743 742 740 739 740 742 744 746 748 749 749 749 749 749 748 748 749 749 750 751 752 753 754 755 756 757 758 759 761 762 763 764 765 766 767 768 769 770 771 772 773 774 775 777 777 779 781 782 784 785 786 787 789 790 792 792 793 794 795 795 796 797 799
745 745 745 745 744 744 744 743 742 741 740 741 742 745 747 749 750 750 750 749 749 749 749 750 750 751 752 753 754 755 756 757 758 760 761 762 763 764 765 767 768 769 770 771 772 773 774 775 776 777 779 780 782 783 785 786 787 788 790 791 792 793 794 794 795 796 797 798 799
746 745 745 745 745 745 745 744 744 743 742 741 741 744 747 749 750 750 750 750 750 750 750 751 751 752 753 753 754 756 757 757 758 760 761 762 763 764 766 767 768 769 771 772 773 774 775 777 778 779 780 782 783 784 786 787 788 789 790 792 792 793 794 795 795 796 797 798 800
747 746 746 746 746 746 746 745 745 744 743 742 742 744 747 749 750 750 751 751 751 751 752 752 752 753 753 754 755 756 757 758 759 760 761 762 764 765 766 767 768 770 771 772 774 775 777 778 779 781 782 783 784 785 786 788 789 790 791 792 793 794 794 795 796 797 798 799 800
747 747 747 747 747 747 746 746 746 745 745 745 745 746 748 749 750 750 751 751 752 752 752 753 753 754 754 755 755 756 757 758 759 761 762 763 764 766 767 768 769 771 772 773 775 776 778 779 781 782 783 784 785 786 787 788 789 791 792 792 793 794 795 795 796 797 798 800 801
748 747 747 747 747 747 747 747 747 747 747 747 748 748 749 749 750 750 751 752 752 753 753 754 754 755 755 756 756 757 758 759 760 762 762 764 765 766 767 769 770 772 773 775 776 777 778 780 781 782 784 785 786 787 788 789 790 791 792 792 793 794 795 796 797 798 799 800 801
749 748 748 747 747 747 747 747 747 748 748 749 750 750 750 750 750 751 752 752 753 753 754 754 755 756 756 757 757 758 759 760 761 762 764 765 766 767 769 770 772 773 774 776 777 777 779 780 782 783 784 785 787 788 789 790 791 791 792 792 793 794 796 797 797 798 799 800 800
750 750 749 749 748 748 748 748 748 749 749 750 751 751 751 751 751 752 753 753 754 754 755 755 756 757 757 758 759 760 761 761 762 764 765 766 767 769 770 772 773 774 776 777 778 779 780 781 782 783 785 786 787 788 789 790 791 792 792 793 794 795 796 797 798 798 799 800 800
752 751 751 750 750 750 750 750 750 750 750 751 751 751 751 752 752 753 754 754 755 756 756 757 757 758 759 760 761 762 762 763 764 765 767 768 769 770 772 773 774 776 777 778 779 780 781 782 783 784 785 786 787 789 790 791 791 792 793 793 794 795 796 797 797 798 799 799 800
753 752 752 752 752 752 752 752 752 752 752 752 752 752 752 753 753 754 755 756 757 757 757 758 759 760 761 761 762 763 764 766 767 767 768 769 770 772 773 774 776 777 778 780 781 782 782 783 784 785 786 787 788 789 790 791 792 792 793 794 795 795 796 797 797 798 799 799 800
754 754 754 753 753 753 753 753 753 754 754 754 754 754 754 754 755 756 756 757 758 758 759 760 761 762 762 763 764 765 766 767 768 769 770 771 772 773 774 775 777 778 780 781 782 783 784 785 786 787 787 788 789 790 791 792 792 793 794 794 795 795 796 797 798 798 799 799 799
756 756 755 755 755 755 755 755 755 756 756 756 756 756 756 757 757 757 758 758 759 759 760 761 762 763 764 765 766 767 767 768 769 770 771 772 773 774 775 777 778 780 781 782 783 784 785 786 787 787 788 789 790 790 791 792 793 793 794 794 795 796 796 797 798 798 798 799 799
758 757 757 757 757 757 757 757 757 757 758 758 758 758 759 759 759 760 760 760 761 761 762 762 763 763 764 765 766 767 768 770 771 772 773 774 775 776 777 779 780 782 783 784 785 785 786 787 787 788 789 790 790 791 792 792 793 794 794 795 795 796 797 797 798 798 798 798 799
760 759 759 759 759 759 759 759 759 759 760 760 760 761 761 761 762 762 762 762 762 763 763 763 764 764 765 766 767 768 770 771 772 773 774 775 777 778 779 781 782 783 784 785 786 786 787 787 788 789 790 790 791 791 792 793 793 794 794 795 795 796 797 797 797 798 798 799 799
761 761 761 761 761 761 762 762 762 762 762 762 762 762 763 763 764 764 764 764 764 765 765 765 766 767 767 768 769 770 771 772 774 775 776 777 778 779 781 782 783 785 786 786 787 787 787 788 789 790 790 791 791 792 792 793 793 794 794 795 796 796 797 797 798 798 799 799 800
762 762 762 762 763 763 763 763 763 763 763 763 764 764 765 765 765 766 766 766 766 767 767 767 768 769 769 770 771 772 773 774 775 776 777 778 779 781 782 784 785 786 787 787 787 788 788 789 790 790 791 792 792 792 793 793 794 794 795 796 796 797 797 798 798 799 800 800 800
764 764 764 764 764 764 765 765 765 765 765 765 766 766 766 767 767 767 768 768 768 769 769 770 770 771 771 772 772 773 774 776 777 778 779 780 781 782 783 785 786 787 788 788 789 789 789 790 791 791 792 792 792 793 793 794 794 795 796 796 797 797 798 798 799 800 800 800 800
765 765 765 766 766 766 766 766 766 766 767 767 767 768 768 768 769 769 770 770 770 771 771 772 772 772 772 773 774 774 775 777 778 779 780 781 782 783 784 786 787 788 789 789 790 790 790 791 791 792 792 792 793 793 794 795 795 796 796 797 797 798 799 799 800 800 800 800 801
767 767 767 767 767 767 767 767 767 767 768 768 769 769 770 771 771 772 772 772 772 772 773 773 773 774 774 775 775 776 777 778 779 780 781 782 782 784 786 787 789 789 790 790 791 791 791 792 792 792 793 793 794 794 795 795 796 797 797 798 798 799 799 800 800 800 800 801 801
768 768 768 768 768 768 768 769 769 769 769 770 771 771 772 772 773 774 774 774 774 774 775 775 775 775 776 776 777 778 779 779 780 781 782 783 784 785 787 788 790 791 791 791 792 792 792 792 793 793 793 794 794 795 795 796 797 797 798 798 799 799 800 800 800 801 801 801 801
770 770 770 770 770 770 770 770 771 771 771 772 772 773 774 774 775 776 776 776 776 776 777 777 777 777 777 778 778 779 780 781 782 783 784 785 786 787 788 789 791 791 792 792 792 792 793 793 794 794 794 794 795 795 796 797 797 798 798 799 799 800 800 800 801 801 801 801 801
772 772 772 772 772 772 772 772 772 773 773 773 774 775 776 776 777 777 778 778 778 778 778 778 779 779 779 779 780 781 782 783 784 785 786 787 788 789 790 790 791 792 792 792 793 793 793 794 794 795 795 795 796 796 797 797 798 798 799 799 800 800 800 801 801 801 801 801 801
773 773 773 773 773 773 774 774 774 775 775 775 776 776 777 778 779 779 780 780 780 780 780 780 780 781 781 781 782 783 784 785 786 787 787 788 789 790 791 791 792 792 793 793 794 794 794 795 795 796 796 796 797 797 797 797 798 799 799 800 800 800 801 801 801 801 801 801 801
775 775 775 775 775 775 775 776 776 777 777 777 777 778 779 780 781 781 781 782 782 782 782 782 782 782 783 783 784 785 786 786 787 788 789 790 790 791 792 792 792 793 794 794 795 795 796 796 796 797 797 797 797 797 797 798 798 799 799 800 800 801 801 801 801 801 801 801 801